Location: *
(33.8649°S, 62.1526°E)
Time: 10:15:51
(UTC+00:00)

Daily predictions for brighter satellites

Satellite Brightness Start Highest point End
(mag) Time Altitude Azimuth Time Altitude Azimuth Time Altitude Azimuth
CZ-3B R/B 3.8 15:21:03 10° NNW 15:24:13 20° NE 15:30:01 10° E
Cosmos 1943 3.8 15:22:24 10° NNE 15:27:22 33° ENE 15:32:22 10° SE
Aureole 3 3.4 15:26:30 10° NNE 15:29:41 45° E 15:33:31 10° SSE
Cosmos 44 Rocket 4.4 15:29:08 10° SW 15:33:29 41° WNW 15:37:51 10° N
ERBS 4.1 15:35:02 10° NNE 15:36:43 13° ENE 15:38:25 10° E
FALCON 9 DEB 4.3 15:34:34 10° N 15:36:59 20° NE 15:39:27 10° ESE
Cosmos 773 Rocket 4.3 15:36:00 10° N 15:40:54 46° ENE 15:45:54 10° SSE
Cosmos 2058 3.6 15:37:06 10° SSE 15:41:03 37° E 15:44:58 10° NNE
OAO 2 Rocket 3.5 15:36:47 10° W 15:42:09 81° S 15:47:27 10° E
Cosmos 1441 Rocket 3.9 15:40:27 10° SSE 15:43:57 34° ESE 15:47:25 10° NE
YAOGAN 1 3.3 15:39:48 10° S 15:44:09 59° WSW 15:48:24 10° NNW
CSL-04 Rocket 3.7 15:39:04 10° SSE 15:44:22 62° ENE 15:49:37 10° N
Cosmos 1943 Rocket 2.4 15:42:10 10° S 15:47:37 53° ESE 15:52:59 10° NE
Cosmos 1825 3.0 15:45:42 10° SSE 15:49:12 33° E 15:52:26 11° NE
Centaur AC-119 3.6 15:50:00 10° NNW 15:50:21 10° N 15:50:43 10° N
Cosmos 2297 3.8 15:44:50 10° SSW 15:50:31 85° WNW 15:56:10 10° NNE
FALCON 9 DEB 3.3 15:52:59 10° NNW 15:56:00 39° NE 15:59:04 10° ESE
CZ-4 R/B 3.6 15:53:44 10° S 15:57:29 31° WSW 16:01:15 10° NW
CENTAUR R/B 3.9 15:50:09 10° NW 15:58:20 55° WSW 16:05:27 10° SSE
Cosmos 1655 Rocket 4.5 15:52:47 10° SSW 15:59:11 66° W 16:05:26 10° N
Cosmos 1538 Rocket 4.4 15:59:34 10° N 16:04:27 42° ENE 16:09:29 10° SSE
Lacrosse 5 rocket 1.6 16:00:09 10° SW 16:04:41 71° SE 16:08:08 18° NE
Cosmos 1892 3.6 16:02:17 10° SSW 16:06:03 49° W 16:09:44 10° NNW
Meteor 2-1 Rocket 4.4 16:00:39 10° NNW 16:06:12 78° W 16:11:53 10° S
SL-08 RB Rocket 3.8 16:01:49 10° S 16:06:35 87° W 16:11:15 10° NNW
GPS 2-04 Rocket1 3.9 16:03:49 10° W 16:06:40 25° NNW 16:08:37 15° NNE
H-2A R/B 3.3 16:02:08 10° S 16:06:55 43° WSW 16:11:35 10° NW
OAO 3 Copernicus 4.3 16:02:16 10° WNW 16:07:22 89° N 16:12:28 10° E
Meteor 2-8 Rocket 4.4 16:05:59 10° N 16:12:08 75° E 16:18:21 10° S
Ariane Rocket 3.5 16:10:04 10° SSE 16:14:51 39° E 16:18:56 13° NNE
Cosmos 1603 3.9 16:09:26 10° NNW 16:15:12 78° WSW 16:21:01 10° SSE
OBJECT-B 1.2 16:13:46 10° SSE 16:16:54 40° E 16:18:24 24° NNE
ATLAS 3B R/B 3.0 16:11:17 10° N 16:18:30 54° ENE 16:25:44 10° SE
MetOp-A 4.2 16:13:56 10° SSE 16:19:18 62° E 16:24:37 10° N
USA 215 3.8 16:17:35 17° ENE 16:22:36 50° SE 16:28:57 10° SSW
Cosmos 1408 3.9 16:20:20 10° SSW 16:23:52 40° W 16:27:20 10° NNW
SEDSat Delta rocket 3.4 16:20:57 10° WNW 16:25:18 47° NNE 16:28:13 22° E
OAO 1 Rocket 4.5 16:21:08 10° W 16:26:33 84° S 16:30:22 20° E
Atlas Centaur 2 1.4 16:23:03 10° WNW 16:26:36 50° N 16:28:12 30° ENE
Yuri Rocket 3.7 16:23:27 10° WNW 16:27:31 40° N 16:29:40 26° ENE
ARGOS 4.4 16:23:08 10° S 16:28:15 43° WSW 16:33:19 10° NW
USA 186 2.9 16:26:42 10° S 16:29:47 44° WSW 16:32:52 10° NNW
Resurs 1-3 4.0 16:28:26 10° SSE 16:32:38 41° E 16:34:15 29° NE
Cosmos 1184 Rocket 2.9 16:31:27 10° SSW 16:34:43 71° W 16:36:11 29° N
NOSS 3-3 (A) 3.9 16:30:22 10° SW 16:36:30 73° WNW 16:40:03 23° NNE
NOSS 3-3 (C) 3.9 16:30:28 10° SW 16:36:36 73° WNW 16:40:08 24° NNE
FREGAT/IRIS 2.4 16:34:17 10° SSE 16:36:14 51° SE 16:36:14 51° SE
FALCON 9 DEB 3.4 16:35:21 10° NW 16:38:31 63° SW 16:41:45 10° SE
SL-8 R/B 4.0 16:36:07 10° WSW 16:40:51 58° NW 16:42:54 32° NNE
Centaur D-1A AC-35 4.0 16:38:01 10° NW 16:41:05 16° N 16:41:05 16° N
FALCON 9 DEB 3.9 16:38:29 10° WNW 16:41:36 48° SW 16:44:45 10° SE
Meteor 2-15 Rocket 4.4 16:36:28 14° N 16:41:45 68° E 16:47:54 10° SSE
Cosmos 1656 Rocket 4.0 16:39:06 10° S 16:44:41 53° ESE 16:47:03 32° NE
H-2A R/B 3.9 16:44:57 23° N 16:47:23 58° W 16:51:30 10° SSW
CZ-2C R/B 1.3 16:44:29 10° W 16:48:28 75° S 16:50:16 33° ESE
Cosmos-2242 3.1 16:48:54 19° NNW 16:51:57 76° W 16:56:25 10° S
Cosmos 2151 2.9 16:49:27 10° S 16:53:46 81° E 16:55:02 45° NNE
ASTEX 1 4.3 16:53:31 29° E 16:54:05 30° ESE 16:58:24 10° SSE
Cosmos 1417 Rocket 4.5 16:50:54 15° N 16:56:17 87° E 17:02:44 10° S
Cosmos 1766 Rocket 4.2 16:53:30 10° S 16:57:41 38° E 16:57:53 37° E
Meteor 2-3 Rocket 3.9 16:52:27 10° S 16:58:14 58° E 17:00:13 39° NE
Cosmos 1869 3.8 17:00:24 43° ESE 17:00:24 43° ESE 17:04:01 10° SSE
SJ-6B 4.2 16:57:15 10° S 17:00:46 36° WSW 17:04:13 10° NW
Cosmos 1553 Rocket 4.2 16:55:01 10° NNW 17:01:17 73° W 17:07:30 10° S
Aurora 2 Rocket 3.9 16:57:39 10° WNW 17:00:55 23° NNW 17:00:55 23° NNW
MOS 1 4.4 16:57:44 10° S 17:03:27 76° WSW 17:08:40 12° NNW
Cosmos 405 3.7 17:03:00 32° NW 17:04:18 50° W 17:07:47 10° S
Cosmos 2369 Rocket 2.7 16:59:10 10° SSW 17:04:46 55° WNW 17:07:41 28° N
Cosmos 923 Rocket 3.9 17:04:15 36° N 17:06:24 71° ENE 17:11:39 10° SSE
Cosmos 2084 Rocket 4.4 17:06:30 10° SW 17:10:24 36° WNW 17:11:15 32° NW
Cosmos 2221 3.8 17:12:08 28° ESE 17:12:08 28° ESE 17:14:56 10° SSE
ARIANE 5 R/B 4.3 17:08:25 10° SE 17:10:34 21° ESE 17:10:34 21° ESE
ERBS 3.9 17:09:26 10° WNW 17:12:35 35° SW 17:15:47 10° SSE
Cosmos 1680 Rocket 3.4 17:14:11 55° NE 17:14:56 62° ENE 17:20:08 10° SSE
Cosmos 1633 2.7 17:13:42 10° S 17:17:02 70° SW 17:17:02 70° SW
Cosmos 1842 Rocket 4.5 17:19:27 35° ESE 17:19:27 35° ESE 17:22:34 10° SSE
S3M 4.1 17:17:05 24° NNW 17:20:58 74° W 17:27:18 10° S
ATLAS CENTAUR R/B 4.1 17:20:10 10° SSW 17:25:32 50° SE 17:30:44 30° ENE
Cosmos 883 Rocket 4.3 17:25:12 50° NNE 17:26:53 76° E 17:33:04 10° S
OAO 2 Rocket 3.5 17:21:45 10° W 17:26:57 56° NNW 17:26:57 56° NNW
Resurs 01 Rocket 1.7 17:24:33 10° S 17:29:04 73° WSW 17:29:42 62° NW
Cosmos 2285 Rocket 4.1 17:22:48 10° SSW 17:29:18 78° WNW 17:31:16 47° N
Cosmos 1943 Rocket 4.5 17:27:33 10° WSW 17:30:48 16° W 17:34:03 10° NW
Spot 2 Rocket 4.3 17:29:00 10° SSE 17:32:47 38° ESE 17:32:47 38° ESE
MetOp-B 4.0 17:28:49 10° SSE 17:34:15 71° ENE 17:34:31 70° NE
Lacrosse 5 rocket 4.0 17:41:30 10° W 17:43:23 12° WNW 17:43:46 12° WNW
FALCON 9 R/B 4.5 17:38:59 10° W 17:47:34 87° S 18:27:31 10° E
Cosmos 2112 Rocket 4.2 17:50:40 62° WNW 17:51:17 68° WSW 17:56:32 10° SSE
OAO 3 Copernicus 4.4 17:46:56 10° W 17:51:33 71° SW 17:51:33 71° SW
Cosmos 1408 Rocket 4.2 17:48:29 10° S 17:51:56 53° S 17:51:56 53° S
SPOT 3 Rocket 4.5 17:48:11 10° S 17:53:10 46° WSW 17:55:07 32° WNW
Thor Agena Rocket 4.4 17:59:48 41° SE 17:59:48 41° SE 18:04:01 10° S
USA 245 4.2 17:56:32 10° S 18:00:54 58° SSW 18:00:54 58° SSW
ERS-1 Rocket 4.1 17:57:25 10° SSE 18:00:32 34° SE 18:00:32 34° SE
USA 215 3.9 18:04:56 39° NW 18:05:35 40° NW 18:11:45 10° WSW
CZ-3B R/B 4.1 17:58:51 10° WNW 18:05:57 57° N 18:26:32 10° E
CZ-2C R/B 3.4 18:06:21 82° NE 18:06:32 84° E 18:10:23 10° S
Terra 3.6 18:04:17 10° SSE 18:06:14 22° SE 18:06:14 22° SE
Cosmos 1709 Rocket 4.1 18:04:19 10° S 18:10:43 70° W 18:11:19 66° NW
USA 281 3.1 18:06:32 10° SSE 18:12:53 71° E 18:12:53 71° E
SPOT 1/Viking Rocket 4.0 18:13:40 10° S 18:18:43 58° WSW 18:18:43 58° WSW
CZ-2C R/B 4.0 18:24:05 10° W 18:24:34 13° W 18:24:34 13° W
COSMOS 2406 4.2 18:35:49 40° SE 18:35:49 40° SE 18:39:26 10° SSE
Cosmos 2184 Rocket 4.3 18:28:24 10° S 18:34:04 60° SE 18:34:04 60° SE
SPOT 5 4.2 18:35:29 10° S 18:38:04 34° S 18:38:04 34° S
Cosmos 1697 Rocket 4.0 18:59:41 10° S 19:03:39 32° SE 19:03:39 32° SE
Cosmos 2074 Rocket 4.4 18:59:23 10° SSW 19:04:36 58° SW 19:04:36 58° SW
Cosmos 2082 Rocket 3.7 19:10:50 30° SE 19:10:50 30° SE 19:13:41 10° SSE
Nadezhda 1 Rocket 4.4 19:10:51 59° SSW 19:10:51 59° SSW 19:16:10 10° S
Cosmos 1833 Rocket 3.7 19:13:59 44° S 19:13:59 44° S 19:17:59 10° SSE
BREEZE-M DEB (TANK) 3.9 19:04:16 10° SW 19:15:42 65° SW 19:15:42 65° SW
Terra 4.2 19:42:47 10° SSW 19:45:08 18° SW 19:45:08 18° SW
Cosmos 1980 Rocket 3.4 20:01:14 10° SSW 20:04:47 38° S 20:04:47 38° S
CZ-2D R/B 3.6 20:13:44 33° SSE 20:13:44 33° SSE 20:16:58 10° S
Resurs 1-4 Rocket 3.5 20:16:07 35° SSE 20:16:07 35° SSE 20:19:33 10° S
USA 234 3.8 20:16:22 10° SE 20:21:13 52° ESE 20:21:13 52° ESE
ADEOS II 3.7 20:35:35 29° SE 20:35:35 29° SE 20:39:24 10° S
USA 229 4.4 20:43:23 50° WSW 20:43:48 50° SW 20:51:02 10° SSE
USA 229 DEB 4.4 20:43:22 49° WSW 20:43:48 50° SW 20:51:01 10° SSE
Lacrosse 5 3.5 20:49:33 31° S 20:49:33 31° S 20:52:41 10° SSE
Cosmos 2082 Rocket 4.3 20:52:40 17° SW 20:52:40 17° SW 20:56:12 10° SSW
SL-16 R/B 2.8 21:20:21 10° SSW 21:24:43 54° S 21:24:43 54° S
Cosmos 2322 Rocket 2.5 21:28:36 10° SSW 21:33:31 63° SSE 21:33:31 63° SSE
Cosmos 1605 Rocket 4.4 21:28:53 10° S 21:34:55 53° E 21:35:27 52° E
Cosmos 2360 Rocket 3.3 21:30:57 10° S 21:36:17 40° ESE 21:37:41 35° E
Cosmos 407 Rocket 3.9 21:50:25 61° SSE 21:50:25 61° SSE 21:54:42 10° SSE
CZ-4B R/B 3.9 21:50:45 59° SSW 21:50:45 59° SSW 21:55:03 10° SSW
Okean 1-7 4.1 21:53:06 44° SSE 21:53:06 44° SSE 21:56:16 10° SSE
CZ-2D R/B 4.4 21:55:03 12° WSW 21:55:03 12° WSW 21:55:45 10° SW
Resurs 1-4 Rocket 4.4 21:57:12 12° WSW 21:57:12 12° WSW 21:57:54 10° SW
Cosmos 1932 4.3 21:53:00 10° SSW 21:59:27 83° WNW 21:59:38 81° NNW
Cosmos 2237 4.2 21:53:48 10° SSW 21:59:33 79° ESE 21:59:41 78° E
SL-16 R/B 3.3 21:55:20 10° SSE 22:01:23 45° E 22:02:57 38° NE
ARIANE 5 R/B 2.5 22:06:41 74° S 22:06:41 74° S 22:11:20 10° SSW
IDEFIX/ARIANE 42P 2.6 22:07:24 76° SSW 22:07:24 76° SSW 22:12:17 10° SSW
BREEZE-M DEB 3.8 22:08:46 55° SSW 22:08:49 55° SSW 22:12:34 10° SE
IRS-1C 4.4 22:13:59 53° WSW 22:13:59 53° WSW 22:18:29 10° SSW
ADEOS II 3.7 22:16:32 21° WSW 22:16:32 21° WSW 22:18:56 10° SW
Cosmos 1727 Rocket 3.8 22:18:29 68° NW 22:19:15 78° W 22:25:30 10° S
Spot 4 Rocket 4.1 22:20:39 62° NE 22:21:27 77° ESE 22:26:39 10° S
MOZ.5/SAFIR/RUBIN 5/SL-8 4.1 22:19:34 10° S 22:23:47 56° SW 22:23:47 56° SW
Meteor 2-4 Rocket 3.9 22:28:02 56° W 22:28:17 56° W 22:34:03 10° S
DELTA 2 R/B (1) 3.7 22:27:43 57° WSW 22:28:45 72° SSW 22:34:23 10° ESE
Cosmos 1153 Rocket 4.3 22:22:47 10° S 22:29:01 86° W 22:30:44 51° N
CZ-2D R/B 3.7 22:30:19 68° SSW 22:30:19 68° SSW 22:34:13 10° SSW
Cosmos 2322 4.1 22:29:49 10° SSW 22:35:29 63° ESE 22:40:53 11° NNE
COSMOS 2441 4.2 22:35:47 74° NW 22:36:02 77° WNW 22:40:56 10° SSW
Cosmos 1782 Rocket 3.5 22:32:16 10° S 22:36:25 74° SW 22:36:25 74° SW
Cosmos 2333 Rocket 2.8 22:32:19 10° SSW 22:37:59 57° ESE 22:43:34 10° NE
Meteor 2-20 Rocket 4.5 22:37:05 41° N 22:39:21 77° E 22:45:31 10° S
Cosmos 1340 Rocket 3.0 22:40:16 10° SSW 22:43:37 60° SSW 22:43:37 60° SSW
Meteor 1-13 Rocket 4.3 22:44:45 49° NNW 22:46:23 75° W 22:52:25 10° S
Cosmos 676 Rocket 4.0 22:45:44 57° WNW 22:46:30 65° WSW 22:51:44 10° S
Sich 1 Rocket 3.8 22:43:42 10° S 22:48:11 70° E 22:49:40 41° NNE
Cosmos 2219 Rocket 2.5 22:47:18 10° SSW 22:53:00 67° ESE 22:58:36 10° NNE
COSMOS 2428 3.2 22:51:19 10° SSW 22:57:03 61° ESE 23:02:43 10° NNE
ATLAS CENTAUR Rocket 3.7 22:54:42 30° N 22:57:30 42° NE 23:22:29 10° E
ATLAS CENTAUR Rocket 3.7 22:54:42 30° N 22:57:30 42° NE 23:22:30 10° E
Cosmos 2227 Rocket 3.5 22:55:24 16° NNE 22:59:14 35° ENE 23:04:20 10° SE
Cosmos 1954 Rocket 4.4 22:58:45 42° WNW 22:59:44 47° WSW 23:04:46 10° S
ATLAS 2AS CENTAUR R/B 4.4 22:55:53 10° NNE 23:00:26 21° ENE 23:04:56 10° ESE
Okean 3 4.1 23:01:10 38° WSW 23:01:10 38° WSW 23:05:00 10° S
Okean 2 Rocket 3.5 22:57:49 10° S 23:02:24 65° E 23:05:29 20° NNE
Cosmos 2333 4.1 22:57:23 10° SSW 23:03:05 66° WNW 23:06:45 22° N
SeaSat 1 2.9 23:02:16 10° SSE 23:07:09 56° ENE 23:09:46 26° N
Cosmos 1461 2.7 23:05:36 10° SSW 23:09:42 84° WNW 23:13:58 10° NNE
Cosmos 1802 Rocket 4.0 23:05:43 10° S 23:12:14 86° W 23:18:07 12° N
Cosmos 1850 Rocket 4.0 23:11:22 30° N 23:13:58 82° ENE 23:19:14 10° SSE
Cosmos 2123 Rocket 4.0 23:10:01 24° N 23:14:01 84° W 23:20:23 10° S
Cosmos 2173 Rocket 3.9 23:08:08 10° SSW 23:14:18 64° W 23:18:17 22° NNW
Cosmos 1066 Rocket 4.3 23:12:07 34° NNW 23:14:26 61° W 23:20:07 10° S
CZ-2C R/B 2.4 23:12:05 24° N 23:15:07 68° WNW 23:20:08 10° SSW
USA 307 2.9 23:12:12 10° SW 23:16:34 88° SE 23:20:53 10° NE
Cosmos 2360 Rocket 3.4 23:15:38 10° SW 23:19:21 22° W 23:19:21 22° W
Aureole 1 Rocket 4.0 23:19:33 26° NNW 23:23:31 66° WSW 23:29:00 10° S
Cosmos 1766 4.1 23:19:46 10° S 23:23:37 49° E 23:27:25 10° NNE
Cosmos 2297 Rocket 2.3 23:20:07 23° NNW 23:23:46 77° ENE 23:29:28 10° SSE
USA 308 2.8 23:20:46 10° SW 23:25:08 77° NW 23:29:26 10° NE
CZ-4C R/B 3.9 23:17:50 10° N 23:25:39 45° ENE 23:32:49 10° SE
ALOS 2.6 23:21:16 10° NNE 23:25:55 67° ESE 23:30:37 10° S
Cosmos 1674 Rocket 3.5 23:25:03 27° NNW 23:27:26 79° W 23:31:51 10° S
USA 305 2.8 23:23:06 10° SW 23:27:26 68° NW 23:31:42 10° NNE
CZ-2C R/B 3.8 23:28:38 28° W 23:28:40 28° W 23:32:14 10° SW
Centaur D AC-28 2.4 23:29:02 29° NW 23:29:59 33° NNW 23:33:28 10° NE
Cosmos 1733 3.6 23:27:04 10° S 23:30:59 66° E 23:34:50 10° NNE
PAYLOAD A 4.4 23:29:17 27° NW 23:31:20 39° W 23:36:08 10° SSW
CBERS 1 LM4 rocket 4.4 23:26:35 10° NNE 23:31:46 88° WNW 23:36:48 10° SSW
CENTAUR R/B 4.5 23:28:37 10° S 23:33:13 26° SE 23:37:31 10° ENE
USA 306 3.0 23:34:47 10° SW 23:39:01 52° NW 23:43:11 10° NNE
Cosmos 1300 Rocket 4.1 23:36:02 10° SSW 23:40:06 37° W 23:42:16 23° NW
Cosmos 1763 Rocket 3.7 23:35:23 10° SSW 23:40:30 70° ESE 23:45:34 10° NNE
CZ-4C R/B 4.3 23:37:16 10° S 23:41:03 33° WSW 23:42:54 23° WNW
SL-16 R/B 3.8 23:39:35 10° SSW 23:44:36 25° WSW 23:48:02 16° WNW
Meteor 1-31 Rocket 3.8 23:41:36 10° NNE 23:45:26 49° ESE 23:49:17 10° S
METEOR-M 4.2 23:40:13 10° NNE 23:45:35 88° ESE 23:51:01 10° SSW
Milstar 3 Cent rocket 2.4 23:45:33 21° NW 23:48:20 45° N 23:53:53 10° E
Lacrosse 4 Rocket 3.9 23:47:20 10° S 23:50:43 24° ESE 23:54:03 10° ENE
Timation 2 Rocket 4.1 23:49:06 17° NW 23:53:48 57° WSW 23:59:45 10° SSE
